Meadow Lake, CO

11:28 PM MDT on April 26, 2017 (GMT -0600)
Meadow Lake

Weather History for KFLY - February, 2013

Change the Weather History Date:

Sunday, February 17, 2013

  Actual Average (KCOS) Record (KCOS)
Temperature  
Mean Temperature 39 °F -  
Max Temperature 56 °F 45 °F 68 °F (1970)
Min Temperature 22 °F 20 °F -19 °F (1910)
Degree Days  
Heating Degree Days 26    
Moisture  
Dew Point -1 °F    
Average Humidity 25    
Maximum Humidity 71    
Minimum Humidity 6    
Precipitation  
Precipitation 0.00 in - - ()
Sea Level Pressure  
Sea Level Pressure 29.78 in    
Wind  
Wind Speed 8 mph (WNW)    
Max Wind Speed 24 mph    
Max Gust Speed 33 mph    
Visibility 10 miles    
Events      
Averages and records for this station are not official NWS values.
T = Trace of Precipitation, MM = Missing Value Source: NWS Daily Summary

Daily Weather History Graph

Daily Weather History Graph

Search for Another Location

Airport or City:

Trip Planner

Search our weather history database for the weather conditions in past years. The results will help you decide how hot, cold, wet, or windy it might be!

Date:

Astronomy

Feb. 17, 2013 Rise Set
Actual Time 6:46 AM MST 5:38 PM MST
Civil Twilight 6:19 AM MST 6:05 PM MST
Nautical Twilight 5:48 AM MST 6:36 PM MST
Astronomical Twilight 5:17 AM MST 7:07 PM MST
Moon 10:45 AM MST (2/17) 12:32 AM MST (2/17)
Length of Visible Light 11h 46m
Length of Day
10h 51m
Waxing Crescent, 49% of the Moon is Illuminated
Feb 17
Waxing Crescent
Feb 17
First Quarter
Feb 25
Full
Mar 4
Last Quarter
Mar 11
New

Hourly Weather History & Observations

Time (MST) Temp. Windchill Dew Point Humidity Pressure Visibility Wind Dir Wind Speed Gust Speed Precip Events Conditions
12:13 AM 24.4 °F 20.1 °F 7.9 °F 49% 30.02 in 10.0 mi WSW 3.5 mph - N/A   Clear
12:33 AM 29.1 °F 25.4 °F 7.5 °F 40% 30.02 in 10.0 mi NW 3.5 mph - N/A   Clear
12:53 AM 23.5 °F - 7.7 °F 51% 30.00 in 10.0 mi Calm Calm - N/A   Clear
1:13 AM 24.1 °F 18.2 °F 7.9 °F 50% 30.00 in 10.0 mi NW 4.6 mph - N/A   Clear
1:33 AM 24.1 °F 17.0 °F 8.6 °F 52% 30.00 in 10.0 mi NW 5.8 mph - N/A   Clear
1:53 AM 22.8 °F 16.7 °F 8.6 °F 55% 29.99 in 10.0 mi NW 4.6 mph - N/A   Clear
2:13 AM 23.0 °F 12.4 °F 8.6 °F 54% 29.98 in 10.0 mi West 10.4 mph - N/A   Clear
2:33 AM 27.3 °F 19.1 °F 4.1 °F 37% 29.97 in 10.0 mi West 8.1 mph - N/A   Clear
2:53 AM 27.5 °F 21.1 °F 3.4 °F 36% 29.96 in 10.0 mi NW 5.8 mph - N/A   Clear
3:13 AM 25.3 °F 17.6 °F 4.1 °F 40% 29.95 in 10.0 mi NW 6.9 mph - N/A   Clear
3:33 AM 25.9 °F 18.2 °F 3.6 °F 38% 29.94 in 10.0 mi WNW 6.9 mph - N/A   Clear
3:53 AM 32.7 °F 24.5 °F 2.3 °F 28% 29.93 in 10.0 mi WNW 10.4 mph - N/A   Clear
4:13 AM 37.9 °F 31.5 °F -3.1 °F 18% 29.93 in 10.0 mi NNW 9.2 mph - N/A   Clear
4:33 AM 33.3 °F 30.2 °F -1.7 °F 23% 29.92 in 10.0 mi NW 3.5 mph - N/A   Clear
4:53 AM 37.6 °F 31.0 °F -4.7 °F 17% 29.92 in 10.0 mi WNW 9.2 mph - N/A   Clear
5:13 AM 32.2 °F 24.4 °F -3.5 °F 22% 29.92 in 10.0 mi NW 9.2 mph - N/A   Clear
5:33 AM 32.5 °F 28.1 °F -4.2 °F 21% 29.92 in 10.0 mi SW 4.6 mph - N/A   Clear
5:53 AM 32.5 °F - -5.3 °F 20% 29.91 in 10.0 mi Calm Calm - N/A   Clear
6:13 AM 27.9 °F 22.6 °F -2.9 °F 26% 29.90 in 10.0 mi NNW 4.6 mph - N/A   Clear
6:33 AM 24.6 °F 16.7 °F -1.7 °F 32% 29.89 in 10.0 mi WNW 6.9 mph - N/A   Clear
7:13 AM 27.0 °F 23.0 °F -0.0 °F 31% 29.88 in 10.0 mi NW 3.5 mph - N/A   Clear
7:33 AM 26.6 °F 21.2 °F 2.3 °F 35% 29.87 in 10.0 mi NNW 4.6 mph - N/A   Clear
7:53 AM 30.2 °F 26.7 °F 5.0 °F 34% 29.87 in 10.0 mi NNW 3.5 mph - N/A   Clear
8:13 AM 34.7 °F 30.6 °F 4.5 °F 28% 29.87 in 10.0 mi NW 4.6 mph - N/A   Clear
8:33 AM 38.3 °F - 4.5 °F 24% 29.87 in 10.0 mi Calm Calm - N/A   Clear
8:53 AM 40.6 °F - 4.8 °F 23% 29.86 in 10.0 mi Calm Calm - N/A   Clear
9:13 AM 43.2 °F 40.5 °F 0.1 °F 17% 29.85 in 10.0 mi North 4.6 mph - N/A   Clear
9:33 AM 44.6 °F 41.4 °F -2.9 °F 14% 29.85 in 10.0 mi SSE 5.8 mph - N/A   Clear
9:53 AM 46.4 °F 43.5 °F -4.0 °F 12% 29.84 in 10.0 mi SE 5.8 mph - N/A   Clear
10:13 AM 47.3 °F - -4.4 °F 12% 29.83 in 10.0 mi SE 4.6 mph - N/A   Clear
10:33 AM 47.1 °F - -3.1 °F 12% 29.82 in 10.0 mi SSE 6.9 mph - N/A   Clear
10:53 AM 48.9 °F - -4.7 °F 11% 29.80 in 10.0 mi South 10.4 mph - N/A   Clear
11:13 AM 49.1 °F - -4.0 °F 11% 29.80 in 10.0 mi South 10.4 mph 24.2 mph N/A   Clear
11:33 AM 48.4 °F - -3.3 °F 12% 29.78 in 10.0 mi South 15.0 mph 24.2 mph N/A   Clear
11:53 AM 49.6 °F - -2.4 °F 12% 29.76 in 10.0 mi South 11.5 mph 21.9 mph N/A   Clear
12:13 PM 51.6 °F - -7.6 °F 8% 29.73 in 10.0 mi South 10.4 mph 24.2 mph N/A   Clear
12:33 PM 54.3 °F - -8.5 °F 7% 29.71 in 10.0 mi SSW 15.0 mph 26.5 mph N/A   Clear
12:53 PM 56.3 °F - -9.4 °F 7% 29.70 in 10.0 mi SW 15.0 mph 26.5 mph N/A   Clear
1:13 PM 54.3 °F - -10.1 °F 7% 29.68 in 10.0 mi SSW 12.7 mph 24.2 mph N/A   Clear
1:33 PM 54.9 °F - -9.6 °F 7% 29.67 in 10.0 mi WSW 11.5 mph 20.7 mph N/A   Clear
1:53 PM 54.0 °F - -10.7 °F 7% 29.66 in 10.0 mi WSW 15.0 mph 20.7 mph N/A   Clear
2:13 PM 54.5 °F - -12.1 °F 6% 29.65 in 10.0 mi SW 17.3 mph 23.0 mph N/A   Clear
2:33 PM 54.5 °F - -11.4 °F 6% 29.64 in 10.0 mi West 12.7 mph 21.9 mph N/A   Clear
2:53 PM 53.8 °F - -9.0 °F 7% 29.63 in 10.0 mi West 17.3 mph 28.8 mph N/A   Clear
3:13 PM 53.2 °F - -8.7 °F 8% 29.63 in 10.0 mi WSW 20.7 mph 31.1 mph N/A   Clear
3:33 PM 52.2 °F - -8.3 °F 8% 29.62 in 10.0 mi WSW 24.2 mph 32.2 mph N/A   Clear
3:53 PM 52.0 °F - -8.3 °F 8% 29.62 in 10.0 mi WSW 23.0 mph 27.6 mph N/A   Clear
4:13 PM 54.3 °F - -8.3 °F 7% 29.62 in 10.0 mi West 18.4 mph 31.1 mph N/A   Clear
4:33 PM 54.0 °F - -9.6 °F 7% 29.61 in 10.0 mi West 17.3 mph 25.3 mph N/A   Clear
4:53 PM 52.7 °F - -9.9 °F 7% 29.62 in 10.0 mi West 11.5 mph 20.7 mph N/A   Clear
5:13 PM 50.0 °F - -9.6 °F 8% 29.63 in 10.0 mi WSW 11.5 mph 25.3 mph N/A   Clear
5:33 PM 47.1 °F - -10.3 °F 9% 29.63 in 10.0 mi West 9.2 mph 16.1 mph N/A   Clear
5:53 PM 41.7 °F 35.6 °F -9.0 °F 11% 29.62 in 10.0 mi WNW 10.4 mph - N/A   Clear
6:13 PM 37.8 °F 31.8 °F -9.8 °F 13% 29.62 in 10.0 mi SW 8.1 mph - N/A   Clear
6:33 PM 41.9 °F 36.9 °F -9.4 °F 11% 29.63 in 10.0 mi West 8.1 mph - N/A   Clear
6:53 PM 36.1 °F 30.6 °F -8.5 °F 15% 29.62 in 10.0 mi WNW 6.9 mph - N/A   Clear
7:13 PM 35.6 °F 29.9 °F -8.3 °F 15% 29.62 in 10.0 mi NW 6.9 mph - N/A   Clear
7:33 PM 32.7 °F 25.7 °F -7.6 °F 17% 29.62 in 10.0 mi NW 8.1 mph - N/A   Clear
7:53 PM 34.9 °F 30.8 °F -7.6 °F 16% 29.62 in 10.0 mi NW 4.6 mph - N/A   Clear
8:13 PM 33.3 °F 25.7 °F -5.3 °F 19% 29.64 in 10.0 mi NNW 9.2 mph - N/A   Clear
8:33 PM 34.5 °F 25.3 °F -5.4 °F 18% 29.67 in 10.0 mi NNE 13.8 mph 17.3 mph N/A   Clear
8:53 PM 35.4 °F 27.3 °F 3.9 °F 27% 29.67 in 10.0 mi North 11.5 mph 19.6 mph N/A   Clear
9:13 PM 32.9 °F 21.0 °F 12.6 °F 43% 29.68 in 10.0 mi NNE 20.7 mph 24.2 mph N/A   Clear
9:33 PM 32.0 °F 20.5 °F 15.1 °F 50% 29.69 in 10.0 mi North 18.4 mph 29.9 mph N/A   Clear
9:53 PM 30.4 °F 19.5 °F 14.7 °F 52% 29.70 in 10.0 mi North 15.0 mph 33.4 mph N/A   Scattered Clouds
10:13 PM 28.9 °F 16.5 °F 14.9 °F 56% 29.70 in 10.0 mi North 18.4 mph 23.0 mph N/A   Scattered Clouds
10:33 PM 28.0 °F 14.9 °F 14.9 °F 58% 29.71 in 10.0 mi North 19.6 mph 27.6 mph N/A   Scattered Clouds
10:53 PM 26.6 °F 12.7 °F 14.5 °F 60% 29.72 in 10.0 mi North 20.7 mph 25.3 mph N/A   Clear
11:13 PM 26.6 °F 14.3 °F 14.0 °F 59% 29.72 in 10.0 mi North 16.1 mph 24.2 mph N/A   Clear
11:33 PM 25.2 °F 12.9 °F 13.8 °F 62% 29.72 in 10.0 mi North 15.0 mph 20.7 mph N/A   Clear
11:53 PM 24.4 °F 9.9 °F 16.3 °F 71% 29.72 in 10.0 mi North 20.7 mph 29.9 mph N/A   Clear